Wind_Speed
21 22 22 21 20 20 20 19 18 15 14 14 14 14 14 15 15 16 15 19 24 30 27 22 22 21 18 15 15 11 18 21 21 23 25 24 12 17 22 22 17 11 10 13 13
23 24 24 24 24 22 21 20 19 19 17 14 13 14 14 14 15 16 17 16 17 23 30 24 21 16 18 17 14 17 19 22 19 20 23 23 13 18 22 20 22 20 12 8 15
25 24 24 24 25 25 23 21 21 19 19 17 14 14 14 14 13 18 12 13 16 17 26 29 25 22 18 19 17 20 24 20 22 17 9 10 14 17 16 16 19 23 15 14 17
26 26 25 25 26 25 25 23 21 20 19 19 17 15 13 12 2 14 11 10 12 17 20 28 27 26 20 21 19 23 23 22 22 17 12 7 14 11 14 13 21 22 18 16 18
25 25 25 26 25 25 24 23 22 20 19 18 18 16 15 14 10 16 14 16 15 12 18 22 27 22 21 21 21 25 22 23 22 21 22 13 15 14 14 20 25 24 20 18 19
25 25 24 24 24 23 23 22 21 20 18 19 18 18 17 16 17 15 14 15 15 13 12 17 17 19 19 23 26 24 24 24 22 19 27 15 21 24 24 21 22 22 21 20 20
23 23 23 22 21 21 21 21 21 20 18 18 18 20 20 14 16 16 13 15 13 13 13 9 14 18 18 19 20 23 24 21 26 20 18 19 18 26 31 26 22 23 23 22 20
21 21 20 19 19 19 19 19 19 19 18 17 18 19 20 19 17 15 15 14 13 13 14 19 19 20 18 18 18 21 25 27 25 21 21 21 28 28 29 27 33 25 24 28 30
20 19 19 18 18 18 17 17 17 17 17 16 17 18 19 18 18 18 16 15 13 14 14 15 19 18 19 20 20 25 29 30 28 26 23 24 24 28 33 28 27 26 28 30 29
19 17 17 16 16 15 15 15 15 17 17 16 17 16 16 14 15 11 11 13 14 12 12 13 14 18 19 24 34 34 29 31 33 31 31 28 22 27 29 27 24 28 31 31 29
19 17 16 15 15 15 15 14 14 16 17 15 13 14 11 15 15 13 13 13 15 14 15 14 17 24 20 23 30 29 33 35 31 33 37 36 29 30 25 23 27 29 30 28 32
18 18 16 15 14 15 14 14 13 16 19 16 18 21 20 17 21 19 13 16 17 19 15 17 28 18 18 22 26 29 33 38 36 33 38 34 33 32 28 28 29 31 30 31 31
17 17 16 14 13 13 12 12 12 14 18 15 19 20 20 24 28 21 17 18 15 18 20 24 18 18 19 23 26 30 33 36 36 28 17 32 33 30 28 25 27 30 29 30 34
16 15 15 14 11 12 10 9 9 9 9 9 13 11 17 22 24 20 21 21 19 23 20 24 20 22 23 21 23 30 27 29 33 39 18 28 16 30 29 31 36 34 34 33 36
15 15 15 13 13 11 10 8 5 3 3 6 8 17 8 12 5 9 16 22 23 20 19 25 22 23 27 27 19 27 23 24 29 37 30 28 30 33 43 37 37 37 38 36 38
15 15 14 14 13 10 8 5 2 1 6 3 3 3 5 10 13 7 7 21 20 23 25 27 23 22 22 20 23 23 21 24 29 32 25 38 32 34 36 42 33 33 37 38 40
15 14 14 13 12 9 6 4 1 6 0 2 2 4 8 10 12 12 11 16 19 20 25 25 30 27 22 20 19 21 22 19 16 20 16 39 44 32 35 37 37 32 39 44 44
15 14 13 12 10 8 4 3 5 3 7 7 8 11 16 13 15 16 16 19 19 22 25 24 26 27 28 34 26 23 26 23 14 15 19 39 39 50 37 31 37 40 34 42 44
15 14 12 11 8 5 7 8 3 4 7 14 20 15 15 13 15 13 12 20 20 19 26 28 36 26 23 27 28 34 33 32 30 33 22 31 38 46 41 42 45 40 42 47 46
13 12 9 10 7 4 3 9 7 12 14 13 8 8 10 12 10 8 13 8 13 14 11 12 23 24 28 17 24 28 27 27 30 21 21 29 37 35 34 45 44 42 47 50 43
12 9 9 9 7 5 8 7 8 7 11 6 7 12 11 15 14 14 12 10 19 22 16 12 18 25 22 32 23 23 28 31 31 27 16 18 28 42 35 35 40 45 42 50 45
11 7 9 8 7 8 12 10 12 7 6 6 7 8 7 10 14 13 13 10 19 17 13 12 12 17 27 25 28 30 32 29 31 32 34 27 33 40 32 25 17 32 39 35 37
11 8 7 7 5 7 5 4 5 7 7 5 5 6 10 10 9 6 8 5 9 13 10 14 7 17 27 29 27 35 34 30 34 32 34 25 27 32 46 45 31 17 35 43 47
12 9 8 6 4 5 8 3 5 8 7 8 9 9 9 11 9 11 14 10 20 14 17 12 13 16 22 26 29 31 29 36 36 31 30 32 43 43 35 36 36 27 26 27 49
10 5 9 10 13 8 8 7 8 7 6 9 5 5 10 11 17 14 14 20 24 20 14 12 19 18 26 29 34 35 33 29 33 31 33 36 38 43 42 38 27 32 25 24 45
13 12 9 6 7 9 9 10 8 8 11 14 12 10 11 13 14 23 20 18 18 21 14 11 22 19 32 29 28 36 34 31 29 29 35 35 44 38 33 33 38 27 24 29 43
10 13 14 10 8 9 10 10 11 13 15 8 13 16 17 17 19 21 23 25 28 30 29 24 21 23 35 28 29 29 47 36 35 31 32 35 31 38 37 33 33 31 34 35 37
Wind_Direction
302 302 301 300 299 297 297 296 296 296 297 299 301 297 291 284 273 266 253 249 240 234 238 233 231 234 239 238 232 216 255 251 249 251 262 211 202 171 149 159 144 186 239 203 195
297 297 297 298 298 296 294 293 291 292 293 295 298 300 297 289 281 269 260 254 250 235 231 233 227 238 248 242 246 238 242 246 234 258 268 244 221 183 176 173 190 198 215 190 195
295 293 293 293 293 294 293 291 289 287 288 291 294 296 299 297 291 277 267 253 248 240 229 231 230 209 228 239 237 234 243 242 247 296 240 201 208 200 182 192 209 214 213 202 199
293 293 291 290 289 288 287 287 286 283 282 283 286 290 293 294 291 273 282 273 253 240 231 225 231 229 237 237 237 238 242 254 255 277 251 228 222 195 195 205 214 221 210 207 208
289 287 286 286 285 284 283 283 282 281 280 278 279 280 282 280 269 277 269 272 270 251 232 223 224 235 242 243 239 238 243 245 251 253 249 205 208 190 181 186 215 232 201 203 206
288 286 283 281 281 281 280 279 279 280 277 275 274 272 271 275 273 283 278 277 270 257 236 231 227 234 245 245 241 241 246 245 247 251 241 230 214 211 193 186 203 223 199 190 196
289 286 283 280 278 276 276 276 276 277 277 274 271 269 266 272 270 276 271 277 274 253 230 244 241 236 242 247 240 244 257 241 244 233 230 218 220 219 220 206 192 207 192 186 182
290 290 287 285 281 277 275 275 276 276 276 274 271 269 269 271 264 267 264 263 268 266 249 217 221 224 226 231 242 244 241 244 233 228 219 214 219 233 230 227 222 204 189 191 196
293 292 291 289 284 281 276 274 273 273 271 270 267 270 278 268 257 257 259 253 259 259 255 240 248 243 240 239 241 233 239 230 237 220 217 214 226 228 232 232 226 208 201 206 206
296 294 293 291 288 284 279 273 269 269 265 262 261 268 266 259 258 244 246 247 234 242 248 247 250 243 238 222 228 229 232 239 237 233 212 213 218 211 225 238 214 199 208 211 204
296 294 292 291 290 286 285 278 275 266 265 251 236 224 244 258 260 242 245 242 236 231 237 236 239 234 235 236 237 242 240 240 238 237 212 213 216 214 217 216 194 198 214 210 212
298 297 292 290 290 287 284 284 278 273 274 261 249 252 238 240 250 244 245 239 229 229 236 236 239 246 246 243 242 240 246 247 250 238 219 217 226 213 202 217 199 202 210 213 216
303 300 297 293 289 288 283 282 282 283 284 271 262 254 247 247 254 240 227 235 223 231 229 237 248 244 250 246 245 242 239 244 248 250 257 211 220 219 205 201 199 209 211 212 219
309 303 300 296 294 285 286 283 285 293 292 272 274 267 247 244 262 260 210 232 232 232 239 246 247 248 245 253 243 250 243 249 250 252 204 223 224 209 209 213 217 208 208 208 215
312 309 305 301 297 296 293 292 287 294 319 179 249 261 233 230 266 292 230 216 228 236 236 246 245 246 246 250 251 250 257 255 253 257 252 231 229 234 218 214 221 210 208 212 222
317 309 306 301 298 295 294 286 268 169 249 221 252 307 262 262 240 241 250 212 235 243 243 249 251 244 253 251 243 251 251 257 259 262 257 249 230 233 227 213 210 213 217 210 219
323 316 309 302 301 295 280 235 141 209 72 157 224 292 269 257 251 240 242 221 230 232 245 252 247 247 242 249 244 242 241 246 252 247 249 247 247 227 229 228 221 233 229 227 221
327 323 315 305 298 293 249 151 217 244 269 290 311 286 281 272 263 248 245 244 242 241 261 263 248 238 238 238 240 236 230 228 235 231 241 242 244 244 233 240 239 235 232 224 224
329 325 319 309 304 275 206 220 236 312 316 292 270 291 283 266 258 249 263 252 250 250 245 253 261 260 255 238 229 239 243 239 234 255 264 257 250 245 241 234 240 233 223 228 239
332 325 320 313 313 240 159 239 256 247 282 290 306 299 297 301 330 262 242 289 259 262 267 274 295 253 250 267 235 234 245 247 232 239 249 253 255 256 238 236 236 245 225 225 229
337 350 335 309 294 222 248 244 268 311 312 305 289 298 291 297 299 288 274 308 278 277 284 302 269 266 269 242 248 244 241 245 259 256 233 253 251 248 257 256 235 235 222 223 219
331 334 326 302 270 255 216 255 267 305 311 303 286 288 297 303 297 286 278 334 309 301 300 290 286 271 258 259 256 255 253 246 234 253 257 259 252 250 249 259 292 254 208 221 228
335 328 336 322 283 313 305 314 305 315 315 307 303 281 304 302 301 281 279 265 338 351 318 288 274 284 265 259 258 254 251 252 259 260 244 261 267 259 253 260 264 272 221 227 220
343 340 339 335 0 348 328 322 300 306 320 308 297 302 301 301 276 272 280 287 296 326 307 294 270 264 271 274 281 294 274 256 254 255 260 249 256 257 258 264 261 266 234 218 214
348 336 326 324 336 321 318 298 302 292 304 339 309 317 306 313 306 291 291 287 270 302 303 282 274 281 277 274 278 282 284 281 283 285 258 254 254 254 257 261 273 258 237 246 206
328 328 302 323 297 319 294 310 291 287 315 312 296 288 303 300 295 301 300 300 288 287 297 276 274 280 280 277 277 281 275 272 267 263 264 270 254 259 257 262 261 271 240 240 240
327 311 322 304 310 286 284 283 280 296 304 295 303 293 290 293 290 286 286 284 277 275 274 266 265 271 274 282 280 277 252 258 261 262 269 278 279 259 261 262 259 260 251 247 221
Height
3129 3127 3126 3125 3124 3123 3121 3120 3119 3119 3118 3116 3114 3113 3111 3111 3110 3110 3111 3111 3114 3119 3122 3126 3128 3130 3132 3135 3136 3139 3141 3137 3137 3136 3136 3132 3138 3134 3136 3140 3147 3150 3146 3149 3152
3125 3124 3122 3121 3119 3118 3118 3117 3116 3115 3114 3113 3112 3111 3109 3108 3107 3106 3108 3108 3109 3113 3117 3121 3124 3128 3129 3132 3134 3136 3136 3134 3133 3137 3135 3129 3121 3120 3134 3136 3140 3143 3145 3149 3151
3121 3120 3118 3117 3115 3114 3113 3112 3112 3111 3110 3110 3109 3108 3107 3105 3105 3102 3104 3105 3106 3108 3112 3116 3120 3122 3125 3129 3131 3134 3132 3131 3130 3133 3131 3132 3132 3130 3132 3136 3138 3142 3145 3148 3150
3118 3116 3114 3112 3111 3110 3109 3108 3108 3107 3107 3106 3105 3105 3104 3104 3107 3101 3101 3102 3103 3105 3107 3111 3116 3118 3120 3124 3128 3129 3130 3130 3129 3130 3128 3132 3134 3131 3134 3137 3138 3140 3144 3146 3149
3113 3111 3109 3107 3106 3105 3104 3103 3103 3103 3102 3102 3102 3102 3101 3101 3101 3099 3099 3099 3101 3102 3103 3106 3111 3115 3117 3121 3124 3124 3126 3128 3127 3125 3126 3129 3130 3131 3134 3134 3134 3137 3141 3145 3147
3108 3106 3104 3102 3101 3099 3099 3098 3098 3098 3098 3098 3098 3098 3097 3098 3096 3096 3096 3096 3097 3099 3100 3103 3106 3112 3115 3116 3119 3121 3122 3123 3124 3123 3125 3128 3125 3128 3131 3131 3133 3135 3139 3142 3146
3102 3100 3098 3097 3095 3094 3093 3093 3093 3093 3093 3093 3093 3093 3093 3095 3093 3093 3093 3093 3094 3095 3097 3102 3104 3107 3110 3111 3113 3115 3116 3117 3118 3120 3123 3125 3122 3125 3128 3130 3133 3135 3138 3141 3145
3096 3095 3093 3092 3090 3089 3089 3088 3088 3088 3088 3088 3088 3088 3087 3088 3089 3089 3090 3090 3091 3092 3094 3096 3096 3098 3103 3106 3107 3111 3112 3111 3114 3117 3120 3121 3121 3123 3123 3129 3130 3133 3136 3138 3140
3091 3089 3088 3087 3085 3084 3083 3083 3083 3083 3084 3084 3084 3083 3082 3083 3084 3084 3086 3087 3088 3089 3090 3092 3093 3096 3100 3102 3105 3105 3103 3107 3111 3112 3116 3117 3118 3120 3118 3123 3127 3130 3132 3133 3135
3087 3085 3083 3082 3081 3079 3079 3078 3078 3078 3079 3079 3079 3082 3080 3080 3079 3081 3082 3083 3085 3087 3088 3088 3090 3091 3094 3097 3092 3098 3101 3103 3103 3107 3108 3111 3115 3112 3115 3118 3122 3126 3127 3129 3132
3082 3080 3079 3077 3076 3075 3075 3075 3077 3074 3072 3075 3072 3074 3074 3074 3075 3077 3078 3079 3082 3084 3085 3087 3088 3085 3090 3092 3094 3097 3096 3095 3097 3100 3100 3102 3108 3106 3110 3114 3119 3123 3123 3125 3126
3078 3075 3074 3074 3072 3071 3070 3070 3070 3069 3067 3067 3068 3067 3069 3071 3071 3073 3076 3077 3077 3078 3082 3085 3080 3085 3088 3089 3090 3092 3091 3090 3091 3093 3093 3099 3102 3104 3102 3106 3114 3117 3119 3120 3122
3074 3071 3070 3069 3068 3068 3067 3067 3066 3066 3064 3063 3061 3062 3064 3066 3063 3068 3072 3072 3075 3076 3078 3078 3079 3082 3083 3084 3085 3085 3086 3088 3087 3088 3084 3090 3096 3096 3098 3102 3110 3114 3117 3117 3116
3070 3068 3066 3066 3068 3064 3064 3064 3063 3063 3062 3060 3058 3057 3058 3059 3059 3062 3065 3070 3070 3071 3074 3073 3077 3077 3078 3078 3082 3080 3084 3084 3083 3082 3086 3092 3090 3093 3095 3097 3097 3104 3110 3113 3111
3067 3065 3064 3062 3062 3061 3062 3061 3062 3063 3063 3059 3055 3054 3055 3057 3058 3058 3059 3064 3065 3068 3071 3067 3071 3073 3072 3074 3079 3076 3079 3079 3081 3077 3081 3083 3084 3084 3087 3088 3088 3096 3102 3107 3105
3064 3062 3060 3060 3059 3059 3059 3059 3061 3065 3060 3057 3055 3055 3055 3054 3056 3058 3057 3060 3064 3064 3063 3063 3066 3067 3068 3070 3072 3074 3076 3077 3076 3075 3068 3072 3075 3077 3077 3074 3082 3090 3096 3100 3099
3062 3059 3057 3056 3056 3056 3057 3058 3062 3060 3056 3056 3054 3054 3054 3054 3055 3055 3057 3057 3059 3060 3058 3059 3058 3061 3064 3065 3067 3069 3072 3072 3073 3068 3062 3065 3066 3063 3071 3072 3074 3080 3084 3088 3090
3059 3056 3055 3054 3053 3053 3055 3058 3058 3055 3052 3048 3050 3048 3050 3052 3052 3053 3053 3054 3055 3057 3055 3052 3049 3053 3057 3056 3061 3062 3065 3064 3064 3060 3059 3059 3052 3050 3066 3070 3070 3071 3078 3082 3082
3055 3053 3052 3051 3051 3051 3054 3056 3056 3053 3050 3047 3048 3049 3047 3049 3050 3049 3049 3051 3052 3054 3051 3047 3042 3046 3048 3050 3054 3053 3055 3056 3060 3061 3056 3052 3051 3054 3059 3062 3066 3067 3064 3068 3072
3053 3051 3050 3048 3049 3050 3052 3053 3052 3050 3048 3050 3052 3050 3047 3045 3046 3046 3047 3044 3043 3042 3042 3042 3039 3041 3042 3045 3045 3047 3053 3054 3050 3051 3050 3045 3044 3043 3049 3053 3057 3059 3056 3057 3065
3051 3048 3049 3048 3047 3049 3050 3051 3047 3047 3048 3049 3049 3048 3048 3046 3046 3046 3044 3041 3040 3039 3039 3040 3039 3038 3039 3037 3041 3045 3045 3046 3046 3044 3042 3041 3036 3041 3043 3046 3047 3048 3045 3047 3054
3049 3047 3046 3045 3047 3045 3046 3044 3045 3046 3047 3045 3045 3046 3047 3045 3043 3044 3044 3043 3037 3038 3037 3038 3034 3035 3035 3036 3038 3038 3037 3039 3040 3038 3035 3032 3027 3037 3037 3040 3038 3042 3035 3044 3048
3046 3045 3044 3043 3043 3042 3043 3045 3044 3043 3042 3042 3043 3044 3043 3043 3043 3042 3043 3040 3037 3036 3035 3036 3036 3033 3030 3035 3033 3031 3032 3034 3033 3033 3031 3031 3025 3032 3028 3031 3036 3038 3035 3035 3035
3045 3042 3042 3041 3041 3042 3041 3043 3043 3042 3040 3039 3038 3040 3041 3039 3040 3038 3039 3039 3035 3036 3034 3036 3034 3036 3032 3028 3028 3028 3027 3028 3028 3026 3025 3023 3022 3023 3024 3026 3030 3034 3038 3037 3030
3044 3042 3041 3040 3040 3040 3041 3040 3041 3041 3038 3037 3038 3038 3038 3036 3034 3034 3034 3030 3029 3031 3032 3033 3029 3030 3027 3028 3025 3023 3022 3021 3020 3018 3018 3018 3016 3016 3022 3020 3024 3026 3025 3030 3026
3042 3041 3039 3036 3039 3039 3039 3038 3038 3038 3037 3036 3036 3035 3035 3035 3035 3030 3029 3029 3026 3024 3027 3030 3025 3027 3020 3022 3023 3017 3017 3017 3016 3015 3012 3010 3010 3013 3017 3017 3016 3020 3024 3021 3019
3041 3040 3036 3035 3036 3038 3038 3037 3036 3035 3035 3033 3033 3032 3032 3032 3029 3026 3023 3022 3019 3018 3019 3022 3021 3024 3014 3020 3019 3013 3001 3007 3009 3010 3010 3007 3007 3010 3009 3010 3010 3013 3013 3018 3010